Nha Trang, Viet Nam

6:47 PM ICT on September 04, 2015 (GMT +0700)
Cam Ranh Bay | | Change Station
CLOSE
Current Station
Airport
Location: Cam Ranh Bay,
Elevation: 39 ft
Nearby Weather Stations

Elev 39 ft 12.00 °N, 109.22 °E | Updated 47 minutes ago

Partly Cloudy
Partly Cloudy
88 °F
Feels Like 96 °F
N
8
Wind Variable Wind from WNW

Today
High -- | Low -- °F
--% Chance of Precip.
Yesterday
High -- | Low -- °F
Precip. -- in
5:32 AM 5:52 PM
Waning Gibbous, 60% visible
Pressure 29.86 in
Visibility 6.2 miles
Clouds Few 1700 ft
Heat Index 96 °F
Dew Point 73 °F
Humidity 62%
Rainfall 0.00 in
Snow Depth Not available.
UV 0 out of 12
Pollen Not available.
Air Quality Not available.
Flu Activity Not available.
METAR VVCR 041100Z 30007KT 9999 FEW017 31/23 Q1011 NOSIG
Pressure 29.86 in
Visibility 6.2 miles
Clouds Few 1700 ft
Heat Index 96 °F
Dew Point 73 °F
Humidity 62%
Rainfall 0.00 in
Snow Depth Not available.
UV 0 out of 12
Pollen Not available.
Air Quality Not available.
Flu Activity Not available.
METAR VVCR 041100Z 30007KT 9999 FEW017 31/23 Q1011 NOSIG

10-Day Weather Forecast

×

Almanac

Astronomy

Sep. 04, 2015 Rise Set
Actual Time
Civil Twilight
Nautical Twilight
Astronomical Twilight
Moon
Length of Visible Light
Length of Day
Tomorrow will be .
, % of the Moon is Illuminated

Today's Extremes

Country Highs Country Lows

Community

WunderPhotos

Upload Photos

1,852,157 photos uploaded!

WunderBlogs® & News

Nearby

Air Quality

  Air Quality AQ Index Pollutant
Not available.

Snow Depth

Station Depth Elevation

Earthquake Activity

City Distance Mag. Time & Date
Minimum magnitude displayed is 2.5.

Coastal Water Temperatures

Place Temperature

Stations

Nearby Weather Stations

Station Location Temp. Windchill Dew Point Humidity Wind Precip. Elev Updated Type